Seattle, WA
on Wednesday, January 9, 2013

Wednesday
Previous Day Next Day
Daily Summary
 ActualAverageRecord
Temperature
Mean Temperature °F 42°F  
Max Temperature 50°F 46°F 56°F (2003)
Min Temperature 35°F 37°F 13°F (1949)
Degree Days
Heating Degree Days 22 23  
Month to date heating degree days 215 215  
Since 1 July heating degree days 1966 2153  
Cooling Degree Days 0 0  
Month to date cooling degree days 0 0  
Year to date cooling degree days 0 0  
Moisture
Dew Point 37°F   
Average Humidity 85    
Maximum Humidity 93    
Minimum Humidity 76    
Precipitation
Precipitation 1.51 in 0.19 in 2.83 in (1990)
Month to date precipitation 2.70 1.69  
Year to date precipitation 2.70 1.69  
Snow
Snow 0.00 in in 2.00 in (1963)
Month to date snowfall 0.0  
Since 1 July snowfall 0.6  
Snow Depth 0.00 in   
Wind
Wind Speed 11 mph   
Max Wind Speed 22 mph   
Max Gust Speed 33 mph   
Visibility 8 miles   
Events Rain   

Key: T is trace of precipitation, MM is missing value
Source: NWS Daily Summary
Time(PST)TemperatureDew PointHumidity Pressure Visibility Wind DirectionWind SpeedGust SpeedPrecipitationEvents Conditions
12:53 AM 48.9°F 46.0°F 90% 29.77 in 7.0 miles SW 17.3 mph 27.6 mph 0.07 in Rain Rain
1:14 AM 48.2°F 46.4°F 93% 29.74 in 6.0 miles SW 18.4 mph 25.3 mph 0.05 in Rain Light Rain
1:53 AM 48.9°F 45.0°F 86% 29.77 in 7.0 miles SSW 19.6 mph 33.4 mph 0.09 in Rain Rain
2:34 AM 44.6°F 42.8°F 93% 29.75 in 4.0 miles WSW 12.7 mph 25.3 mph 0.09 in Rain Heavy Rain
2:53 AM 45.0°F 42.1°F 90% 29.77 in 6.0 miles West 9.2 mph - 0.19 in Rain Rain
3:21 AM 44.6°F 41.0°F 87% 29.73 in 9.0 miles WSW 6.9 mph - 0.07 in Rain Light Rain
3:53 AM 44.1°F 39.9°F 85% 29.74 in 10.0 miles SW 9.2 mph - 0.12 in Rain Light Rain
4:09 AM 42.8°F 39.2°F 87% 29.72 in 10.0 miles SW 10.4 mph - 0.02 in Rain Light Rain
4:32 AM 42.8°F 39.2°F 87% 29.70 in 7.0 miles WSW 9.2 mph - 0.04 in Rain Light Rain
4:53 AM 42.8°F 39.2°F 87% 29.69 in 6.0 miles SW 9.2 mph - N/A Rain Rain
5:13 AM 42.8°F 39.2°F 87% 29.69 in 6.0 miles SSW 10.4 mph - 0.04 in Rain Rain
5:37 AM 42.8°F 39.2°F 87% 29.68 in 6.0 miles SSW 8.1 mph - 0.12 in Rain Rain
5:53 AM 42.1°F 39.0°F 89% 29.70 in 7.0 miles South 8.1 mph - 0.16 in Rain Rain
6:27 AM 41.0°F 37.4°F 87% 29.69 in 7.0 miles SSW 11.5 mph - N/A Rain Rain
6:53 AM 41.0°F 37.9°F 89% 29.73 in 6.0 miles SSW 11.5 mph - 0.18 in Rain Rain
7:11 AM 41.0°F 37.4°F 87% 29.71 in 6.0 miles SW 11.5 mph - 0.06 in Rain Rain
7:53 AM 39.2°F 37.4°F 93% 29.73 in 5.0 miles SSE 10.4 mph - N/A Rain Rain
8:03 AM 39.2°F 35.6°F 87% 29.73 in 5.0 miles SE 9.2 mph - 0.06 in Rain Rain
8:53 AM 36.0°F 34.0°F 93% 29.78 in 2.5 miles ESE 10.4 mph - 0.30 in Rain Rain
9:53 AM 36.0°F 33.1°F 89% 29.78 in 3.0 miles ESE 10.4 mph - 0.11 in Rain Light Rain
10:01 AM 35.6°F 33.8°F 93% 29.76 in 3.0 miles SE 11.5 mph - 0.00 in Rain Light Rain
10:53 AM 37.0°F 35.1°F 93% 29.80 in 2.5 miles SE 11.5 mph - 0.00 in   Overcast
11:31 AM 37.4°F 35.6°F 93% 29.77 in 10.0 miles SSE 9.2 mph - N/A   Overcast
11:53 AM 39.0°F 37.0°F 93% 29.79 in 10.0 miles South 10.4 mph - N/A   Overcast
12:53 PM 42.1°F 37.9°F 85% 29.78 in 10.0 miles SSW 13.8 mph - N/A   Overcast
1:34 PM 42.8°F 37.4°F 81% 29.78 in 10.0 miles SSW 13.8 mph 21.9 mph N/A   Overcast
1:53 PM 42.1°F 37.0°F 82% 29.81 in 10.0 miles SSW 13.8 mph 25.3 mph N/A   Overcast
2:53 PM 42.1°F 37.0°F 82% 29.83 in 10.0 miles South 13.8 mph 23.0 mph N/A   Overcast
3:30 PM 42.8°F 35.6°F 76% 29.82 in 10.0 miles SSW 15.0 mph 20.7 mph N/A   Overcast
3:42 PM 42.8°F 35.6°F 76% 29.82 in 10.0 miles South 11.5 mph - N/A   Mostly Cloudy
3:53 PM 42.1°F 36.0°F 79% 29.85 in 10.0 miles South 10.4 mph - N/A   Mostly Cloudy
4:53 PM 39.9°F 34.0°F 79% 29.88 in 10.0 miles SSW 16.1 mph 20.7 mph N/A   Mostly Cloudy
5:05 PM 39.2°F 33.8°F 81% 29.85 in 10.0 miles SSW 15.0 mph 21.9 mph N/A   Mostly Cloudy
5:24 PM 39.2°F 33.8°F 81% 29.86 in 10.0 miles SSW 15.0 mph - N/A   Mostly Cloudy
5:53 PM 39.0°F 34.0°F 82% 29.90 in 10.0 miles SSW 11.5 mph - N/A   Mostly Cloudy
6:53 PM 39.0°F 34.0°F 82% 29.91 in 10.0 miles South 11.5 mph - N/A   Mostly Cloudy
7:53 PM 37.9°F 32.0°F 79% 29.94 in 10.0 miles SSE 11.5 mph - N/A   Overcast
8:53 PM 37.9°F 32.0°F 79% 29.95 in 10.0 miles South 8.1 mph - N/A   Mostly Cloudy
9:53 PM 37.0°F 32.0°F 82% 29.95 in 10.0 miles South 11.5 mph - N/A   Mostly Cloudy
10:53 PM 37.0°F 33.1°F 86% 29.96 in 10.0 miles South 6.9 mph - N/A   Overcast
11:09 PM 37.4°F 33.8°F 87% 29.94 in 10.0 miles SSW 5.8 mph - N/A   Overcast
11:39 PM 37.4°F 33.8°F 87% 29.94 in 10.0 miles SSW 5.8 mph - N/A   Overcast
11:53 PM 37.0°F 32.0°F 82% 29.96 in 10.0 miles South 8.1 mph - N/A   Overcast
Moon Phase
Jan. 09 Jan. 11 Jan. 18 Jan. 26 Feb. 03
Sunrise:07:55 AM (PST) Moon Rise:05:40 AM (PST)1/9
Sunset:04:38 PM (PST) Moon Set:02:45 PM (PST)1/9

Copyright © 2014 The Weather Underground, Inc.